Location: Prostejov
(49.4670°N, 17.1170°E)
Time: 09:32:48
(UTC+02:00)

ISS - Pass Details

Date: 23 May 2021
Orbit: 417 x 422 km, 51.6° (Epoch: 13 June)

Event Time Altitude Azimuth Distance (km) Brightness Sun altitude
Rises 00:34:44 0° 288° (WNW) 2,370 0.4 -19.9°
Reaches altitude 10° 00:36:56 10° 280° (W) 1,504 -0.8 -19.9°
Enters shadow 00:38:20 21° 266° (W) 1,005 -1.9 -19.9°
